Date_and_time,latitude,longitude,wind_speed,RelWindDirFrom,WindDirFrom,air_pressure,air_temperature,relative_humidity,Temp,platform_speed_wrt_ground,air_pressure_at_mean_sea_level,platform_orientation
2018-09-15 23:50,50.6304483333333,-96.9807783333333,17.8,20.8,29,994.95,13.8,92,16.26,0.0,1021.70,38.0
2018-09-16 00:00,50.6304466666667,-96.9807733333333,17.2,20.6,34,995.02,13.9,91,16.29,0.0,1021.76,311.7
2018-09-16 00:10,50.6304466666667,-96.9807716666667,18.5,21.6,31,994.71,13.9,91,16.27,0.0,1021.44,311.7
2018-09-16 00:20,50.6304466666667,-96.9807733333333,19.1,22.1,31,994.37,13.9,92,16.24,0.0,1021.08,311.7
2018-09-16 00:30,50.630445,-96.98077,19.6,22.7,29,994.33,13.9,92,16.24,0.0,1021.03,311.7
2018-09-16 00:40,50.630445,-96.9807716666667,19.9,23.3,31,994.09,13.9,92,16.24,0.0,1020.79,311.7
2018-09-16 00:50,50.63044,-96.9807666666667,20.3,23.3,35,993.77,13.9,92,16.24,0.0,1020.46,311.7
2018-09-16 01:00,50.63044,-96.9807683333333,21.2,25.2,35,993.57,13.8,92,16.21,0.0,1020.24,360.0
2018-09-16 01:10,50.6304433333333,-96.9807683333333,21.1,24.3,37,993.47,13.8,92,16.20,0.0,1020.14,360.0
2018-09-16 01:20,50.6304433333333,-96.9807666666667,21.6,25.8,37,993.55,13.7,91,16.22,0.0,1020.22,360.0
2018-09-16 01:30,50.6304533333333,-96.9807733333333,20.3,23.6,40,993.79,13.7,92,16.23,0.0,1020.47,360.0
2018-09-16 01:40,50.6304166666667,-96.98075,20.2,23.6,43,993.66,13.7,93,16.21,0.0,1020.33,360.0
2018-09-16 01:50,50.6304366666667,-96.9807616666667,19.7,23.5,41,993.82,13.6,94,16.20,0.0,1020.49,360.0
2018-09-16 02:00,50.6304366666667,-96.98076,20.0,23.8,46,993.75,13.5,94,16.16,0.0,1020.42,119.2
2018-09-16 02:10,50.6304383333333,-96.980765,19.6,23.7,47,993.62,13.5,94,16.13,0.0,1020.29,119.2
2018-09-16 02:20,50.63044,-96.9807633333333,18.3,21.1,51,993.87,13.5,94,16.14,0.0,1020.55,119.2
2018-09-16 02:30,50.6304416666667,-96.9807633333333,18.0,20.8,45,993.98,13.4,94,16.14,0.0,1020.66,119.2
2018-09-16 02:40,50.6304433333333,-96.9807666666667,17.5,21.2,48,993.73,13.5,96,16.14,0.0,1020.41,119.2
2018-09-16 02:50,50.63044,-96.980765,16.5,21.0,47,993.77,13.5,96,16.13,0.0,1020.44,119.2
2018-09-16 03:00,50.6304383333333,-96.980765,17.1,20.0,47,993.67,13.5,94,16.13,0.0,1020.35,131.7
2018-09-16 03:10,50.6304366666667,-96.9807683333333,17.4,20.8,41,993.43,13.4,94,16.15,0.0,1020.11,131.7
2018-09-16 03:20,50.6304366666667,-96.9807683333333,17.1,21.2,38,993.37,13.4,96,16.16,0.0,1020.05,131.7
2018-09-16 03:30,50.6304366666667,-96.98077,16.2,19.2,35,993.40,13.4,96,16.17,0.0,1020.08,131.7
2018-09-16 03:40,50.630435,-96.9807683333333,16.3,18.8,36,993.36,13.4,97,16.17,0.0,1020.04,131.7
2018-09-16 03:50,50.630435,-96.9807683333333,16.1,19.0,34,993.21,13.4,97,16.17,0.0,1019.90,131.7
2018-09-16 04:00,50.630435,-96.9807683333333,16.8,22.1,39,992.82,13.4,98,16.17,0.0,1019.49,360.0
2018-09-16 04:10,50.6304366666667,-96.9807683333333,18.4,21.5,41,992.21,13.3,98,16.17,0.0,1018.87,360.0
2018-09-16 04:20,50.6304366666667,-96.98077,18.1,20.8,34,992.48,13.3,98,16.17,0.0,1019.15,360.0
2018-09-16 04:30,50.6304366666667,-96.9807716666667,17.7,21.0,33,992.40,13.2,98,16.16,0.0,1019.07,360.0
2018-09-16 04:40,50.6304366666667,-96.9807716666667,18.4,22.1,40,991.79,13.2,99,16.15,0.0,1018.44,360.0
2018-09-16 04:50,50.6304366666667,-96.9807733333333,18.7,24.1,48,991.22,13.2,99,16.15,0.0,1017.85,360.0
2018-09-16 05:00,50.6304366666667,-96.9807733333333,21.2,24.5,52,990.67,13.2,99,16.14,0.0,1017.29,270.0
2018-09-16 05:10,50.6304366666667,-96.9807733333333,20.1,23.5,57,990.86,13.4,99,16.13,0.0,1017.48,270.0
2018-09-16 05:20,50.6304366666667,-96.9807733333333,20.3,24.1,62,990.91,13.4,99,16.11,0.0,1017.54,270.0
2018-09-16 05:30,50.6304366666667,-96.9807733333333,20.9,24.2,63,990.63,13.4,99,16.10,0.0,1017.24,270.0
2018-09-16 05:40,50.6304366666667,-96.9807733333333,22.1,25.9,66,990.04,13.5,99,16.09,0.0,1016.64,270.0
2018-09-16 05:50,50.63044,-96.9807783333333,21.5,25.6,67,990.01,13.5,99,16.08,0.0,1016.60,270.0
2018-09-16 06:00,50.6304383333333,-96.9807733333333,19.3,24.2,60,990.38,13.6,98,16.08,0.0,1016.99,270.0
2018-09-16 06:10,50.630435,-96.9807733333333,17.6,20.4,55,990.64,13.7,98,16.08,0.0,1017.25,270.0
2018-09-16 06:20,50.6304166666667,-96.9807716666667,17.5,20.4,50,990.64,13.7,99,16.09,0.0,1017.25,270.0
2018-09-16 06:30,50.6304316666667,-96.9807916666667,18.2,22.4,50,990.40,13.7,98,16.07,0.0,1017.01,270.0
2018-09-16 06:40,50.63044,-96.98078,14.7,18.2,48,990.93,13.7,98,16.06,0.0,1017.55,270.0
2018-09-16 06:50,50.6304366666667,-96.980775,13.4,15.7,36,991.21,13.6,98,16.05,0.0,1017.84,270.0
2018-09-16 07:00,50.630435,-96.98079,15.7,18.4,32,991.10,13.6,98,16.06,0.0,1017.72,270.0
2018-09-16 07:10,50.6304333333333,-96.98078,14.7,17.9,26,991.09,13.6,99,16.05,0.0,1017.71,270.0
2018-09-16 07:20,50.6304333333333,-96.9807783333333,17.0,19.5,29,990.52,13.5,99,16.05,0.0,1017.13,270.0
2018-09-16 07:30,50.630435,-96.9807766666667,17.7,21.5,25,990.22,13.5,99,16.03,0.0,1016.81,270.0
2018-09-16 07:40,50.6304333333333,-96.980775,17.9,20.8,29,990.02,13.5,99,16.01,0.0,1016.61,270.0
2018-09-16 07:50,50.6304333333333,-96.9807783333333,17.5,20.4,27,989.98,13.5,99,16.00,0.0,1016.57,270.0
2018-09-16 08:00,50.630435,-96.98078,19.0,22.8,29,989.47,13.4,99,16.00,0.0,1016.05,270.0
2018-09-16 08:10,50.630435,-96.98078,18.2,21.7,31,989.22,13.4,99,16.00,0.0,1015.79,270.0
2018-09-16 08:20,50.630435,-96.98078,19.1,22.2,29,989.19,13.3,99,15.99,0.0,1015.76,270.0
2018-09-16 08:30,50.630435,-96.98078,19.7,23.0,28,989.32,13.3,99,15.98,0.0,1015.89,270.0
2018-09-16 08:40,50.6304366666667,-96.9807816666667,20.6,24.7,26,989.09,13.2,99,15.97,0.0,1015.67,270.0
2018-09-16 08:50,50.6304366666667,-96.9807816666667,21.8,25.0,25,988.69,13.2,99,15.97,0.0,1015.26,270.0
2018-09-16 09:00,50.6304383333333,-96.98078,21.6,24.8,28,988.39,13.2,99,15.93,0.0,1014.95,270.0
2018-09-16 09:10,50.6304383333333,-96.98078,21.5,25.4,30,988.17,13.2,99,15.90,0.0,1014.73,270.0
2018-09-16 09:20,50.6304366666667,-96.9807733333333,22.4,26.7,36,987.75,13.2,99,15.86,0.0,1014.29,270.0
2018-09-16 09:30,50.6304333333333,-96.980765,23.1,27.0,36,987.52,13.1,99,15.85,0.0,1014.06,270.0
2018-09-16 09:40,50.6304333333333,-96.9807716666667,23.7,27.6,36,987.38,13.1,99,15.85,0.0,1013.92,270.0
2018-09-16 09:50,50.6304316666667,-96.9807733333333,24.4,28.2,39,987.17,13.1,99,15.86,0.0,1013.71,270.0
2018-09-16 10:00,50.6304333333333,-96.9807766666667,23.2,28.2,47,987.03,13.2,100,15.84,0.0,1013.56,111.5
2018-09-16 10:10,50.6304416666667,-96.980815,24.1,29.4,52,986.60,13.3,99,15.83,0.0,1013.12,111.5
2018-09-16 10:20,50.6304366666667,-96.9807766666667,23.7,28.4,56,986.34,13.3,99,15.82,0.0,1012.86,111.5
2018-09-16 10:30,50.6304366666667,-96.9807816666667,23.4,28.3,58,986.06,13.3,99,15.79,0.0,1012.58,111.5
2018-09-16 10:40,50.630435,-96.9807783333333,23.9,29.2,63,985.84,13.3,99,15.79,0.0,1012.35,111.5
2018-09-16 10:50,50.6304333333333,-96.9807766666667,25.9,31.6,65,985.28,13.3,99,15.78,0.0,1011.77,111.5
2018-09-16 11:00,50.630435,-96.9807766666667,24.7,29.4,67,985.09,13.3,100,15.77,0.0,1011.57,90.0
2018-09-16 11:10,50.6304333333333,-96.980775,25.2,28.8,68,984.95,13.3,100,15.77,0.0,1011.43,90.0
2018-09-16 11:20,50.630435,-96.9807733333333,22.7,27.8,72,984.98,13.3,100,15.78,0.0,1011.46,90.0
2018-09-16 11:30,50.6304216666667,-96.980765,22.1,26.4,74,984.85,13.5,100,15.78,0.0,1011.32,90.0
2018-09-16 11:40,50.63043,-96.9807683333333,22.5,26.0,76,984.60,13.5,100,15.77,0.0,1011.06,90.0
2018-09-16 11:50,50.63043,-96.9807666666667,23.5,27.0,75,984.35,13.5,100,15.76,0.0,1010.80,90.0
2018-09-16 12:00,50.6304333333333,-96.9807683333333,21.9,25.6,71,984.10,13.5,100,15.75,0.0,1010.54,130.6
2018-09-16 12:10,50.6304366666667,-96.9807616666667,22.4,25.1,71,984.11,13.5,100,15.75,0.0,1010.56,130.6
2018-09-16 12:20,50.6304416666667,-96.980765,20.6,24.8,70,984.12,13.4,100,15.74,0.0,1010.57,130.6
2018-09-16 12:30,50.6304416666667,-96.9807633333333,20.1,24.3,68,984.10,13.4,100,15.74,0.0,1010.55,130.6
2018-09-16 12:40,50.6304483333333,-96.9807783333333,17.8,21.5,67,984.32,13.4,100,15.74,0.0,1010.77,130.6
2018-09-16 12:50,50.6304483333333,-96.9807783333333,18.3,23.4,67,984.27,13.5,100,15.73,0.0,1010.72,130.6
2018-09-16 13:00,50.6304466666667,-96.9807783333333,17.5,20.7,61,984.36,13.5,100,15.73,0.0,1010.81,327.5
2018-09-16 13:10,50.6304466666667,-96.9807766666667,18.8,23.0,60,983.95,13.5,100,15.73,0.0,1010.39,327.5
2018-09-16 13:20,50.630445,-96.9807783333333,20.3,24.6,58,983.44,13.5,100,15.73,0.0,1009.86,327.5
2018-09-16 13:30,50.6304433333333,-96.9807766666667,21.3,25.5,58,982.99,13.5,100,15.74,0.0,1009.40,327.5
2018-09-16 13:40,50.6304516666667,-96.98078,21.3,24.9,60,982.72,13.5,100,15.75,0.0,1009.12,327.5
2018-09-16 13:50,50.6304433333333,-96.9807666666667,22.2,26.4,63,982.21,13.5,100,15.75,0.0,1008.59,327.5
2018-09-16 14:00,50.63044,-96.98077,21.7,25.7,68,981.94,13.5,100,15.73,0.0,1008.32,12.6
2018-09-16 14:10,50.630445,-96.9807766666667,20.8,24.9,74,981.60,13.5,100,15.73,0.0,1007.97,12.6
2018-09-16 14:20,50.6304433333333,-96.980775,18.3,23.6,78,981.38,13.6,100,15.73,0.0,1007.74,12.6
2018-09-16 14:30,50.6304383333333,-96.980775,12.0,17.3,79,981.65,13.6,100,15.70,0.0,1008.02,12.6
2018-09-16 14:40,50.63044,-96.9807816666667,11.4,13.9,69,981.35,13.6,101,15.67,0.0,1007.71,12.6
2018-09-16 14:50,50.6304283333333,-96.9807616666667,12.7,15.2,62,981.00,13.5,101,15.67,0.0,1007.35,12.6
2018-09-16 15:00,50.63043,-96.9807666666667,12.6,14.9,55,980.65,13.6,101,15.68,0.0,1006.98,360.0
2018-09-16 15:10,50.63043,-96.9807633333333,13.8,16.2,55,980.21,13.7,101,15.67,0.0,1006.53,360.0
2018-09-16 15:20,50.6304283333333,-96.980765,14.9,17.7,57,979.73,13.9,100,15.66,0.0,1006.03,360.0
2018-09-16 15:30,50.6304266666667,-96.980765,15.2,19.4,53,979.66,13.9,100,15.65,0.0,1005.96,360.0
2018-09-16 15:40,50.63042,-96.9807716666667,16.7,20.1,52,979.42,13.9,100,15.65,0.0,1005.71,360.0
2018-09-16 15:50,50.63044,-96.9807883333333,18.4,21.3,51,978.91,14.0,101,15.66,0.0,1005.19,360.0
2018-09-16 16:00,50.6304333333333,-96.9807833333333,19.1,22.5,53,978.34,14.0,101,15.64,0.0,1004.59,161.1
2018-09-16 16:10,50.6304366666667,-96.980785,19.5,23.0,51,977.80,13.7,101,15.63,0.0,1004.05,161.1
2018-09-16 16:20,50.6304366666667,-96.9807883333333,17.6,21.9,44,978.28,13.5,101,15.63,0.0,1004.55,161.1
2018-09-16 16:30,50.6304333333333,-96.9807816666667,18.8,22.4,44,978.21,13.5,101,15.62,0.0,1004.49,161.1
2018-09-16 16:40,50.630435,-96.9807783333333,21.1,24.2,37,977.97,13.4,101,15.62,0.0,1004.24,161.1
2018-09-16 16:50,50.630435,-96.9807766666667,21.8,26.0,36,977.59,13.3,101,15.61,0.0,1003.86,161.1
2018-09-16 17:00,50.6304533333333,-96.980775,22.2,26.1,30,977.54,13.2,101,15.59,0.0,1003.80,318.7
2018-09-16 17:10,50.6304416666667,-96.9807716666667,24.4,27.8,32,976.90,13.2,101,15.58,0.0,1003.14,318.7
2018-09-16 17:20,50.630435,-96.98077,21.6,26.0,35,977.04,13.2,101,15.56,0.0,1003.28,318.7
2018-09-16 17:30,50.6304266666667,-96.9807833333333,22.7,26.4,30,976.90,13.0,101,15.55,0.0,1003.15,318.7
2018-09-16 17:40,50.630445,-96.9807833333333,22.1,25.9,35,976.72,13.1,101,15.55,0.0,1002.95,318.7
2018-09-16 17:50,50.63044,-96.9807783333333,22.3,28.0,33,976.44,12.8,101,15.55,0.0,1002.68,318.7
2018-09-16 18:00,50.630435,-96.980755,20.8,24.8,35,976.37,12.8,101,15.53,0.0,1002.62,14.5
2018-09-16 18:10,50.6304366666667,-96.9807833333333,20.7,25.9,39,976.14,12.9,101,15.52,0.0,1002.39,14.5
2018-09-16 18:20,50.6304383333333,-96.9807883333333,20.4,24.7,35,976.35,12.9,101,15.52,0.0,1002.60,14.5
2018-09-16 18:30,50.630425,-96.9807716666667,19.8,24.4,39,976.46,12.8,101,15.52,0.0,1002.73,14.5
2018-09-16 18:40,50.630425,-96.98078,20.9,26.1,37,976.41,12.9,100,15.51,0.0,1002.67,14.5
2018-09-16 18:50,50.6304416666667,-96.9807783333333,20.3,24.3,41,976.42,12.9,100,15.50,0.0,1002.69,14.5
2018-09-16 19:00,50.6304383333333,-96.9807733333333,19.7,24.3,39,976.38,12.9,100,15.50,0.0,1002.65,36.6
2018-09-16 19:10,50.6304383333333,-96.9807733333333,16.6,20.4,41,976.61,13.0,100,15.49,0.0,1002.88,36.6
2018-09-16 19:20,50.63044,-96.9807633333333,14.6,17.5,36,976.70,13.0,100,15.49,0.0,1002.98,36.6
2018-09-16 19:30,50.6304516666667,-96.9807766666667,13.5,17.6,34,976.73,13.0,101,15.48,0.0,1003.01,36.6
2018-09-16 19:40,50.6304483333333,-96.98079,12.0,16.6,21,976.89,13.0,101,15.47,0.0,1003.18,36.6
2018-09-16 19:50,50.6304383333333,-96.9807733333333,12.7,15.0,11,976.97,12.9,101,15.48,0.0,1003.27,36.6
2018-09-16 20:00,50.6304366666667,-96.9807716666667,13.4,16.2,16,976.87,13.0,101,15.48,0.0,1003.16,161.1
2018-09-16 20:10,50.63047,-96.9807933333333,14.2,16.7,22,976.60,13.0,101,15.48,0.0,1002.89,161.1
2018-09-16 20:20,50.6304366666667,-96.980775,14.1,16.5,12,976.76,13.1,101,15.47,0.0,1003.05,161.1
2018-09-16 20:30,50.6304416666667,-96.9807666666667,10.5,15.8,353,977.22,13.1,100,15.48,0.0,1003.52,161.1
2018-09-16 20:40,50.6304416666667,-96.9807683333333,11.1,20.2,339,977.55,12.9,100,15.48,0.0,1003.87,161.1
2018-09-16 20:50,50.6304416666667,-96.9807666666667,12.0,16.9,341,977.55,12.9,100,15.48,0.0,1003.87,161.1
2018-09-16 21:00,50.6304416666667,-96.9807666666667,13.3,19.2,342,977.60,12.7,100,15.48,0.0,1003.92,311.7
2018-09-16 21:10,50.6304416666667,-96.9807666666667,13.2,21.2,329,977.79,12.0,100,15.46,0.0,1004.15,311.7
2018-09-16 21:20,50.6304416666667,-96.9807666666667,13.7,19.6,334,978.07,11.4,100,15.45,0.0,1004.46,311.7
2018-09-16 21:30,50.6304383333333,-96.980775,13.6,20.8,343,978.31,11.3,100,15.45,0.0,1004.72,311.7
2018-09-16 21:40,50.6304416666667,-96.9807633333333,17.4,23.6,352,978.23,11.2,100,15.45,0.0,1004.64,311.7
2018-09-16 21:50,50.6304483333333,-96.9807633333333,17.9,24.1,348,978.21,11.1,100,15.45,0.0,1004.62,311.7
2018-09-16 22:00,50.6304433333333,-96.9807666666667,17.2,25.0,347,978.42,10.9,100,15.45,0.0,1004.84,90.0
2018-09-16 22:10,50.6304416666667,-96.9807666666667,17.4,25.5,349,978.61,10.9,100,15.44,0.0,1005.03,90.0
2018-09-16 22:20,50.6304416666667,-96.9807683333333,15.0,22.3,341,979.17,10.8,100,15.45,0.0,1005.62,90.0
2018-09-16 22:30,50.63044,-96.9807766666667,15.5,21.3,342,979.51,10.6,100,15.44,0.0,1005.99,90.0
2018-09-16 22:40,50.6304383333333,-96.980775,14.4,19.7,341,979.88,10.6,100,15.43,0.0,1006.37,90.0
2018-09-16 22:50,50.6304433333333,-96.98077,13.5,24.6,340,980.15,10.6,100,15.42,0.0,1006.66,90.0
2018-09-16 23:00,50.630445,-96.980775,12.2,19.3,328,980.47,10.0,100,15.42,0.0,1007.04,38.0
2018-09-16 23:10,50.6304466666667,-96.9807766666667,13.5,20.6,331,980.64,9.4,100,15.42,0.0,1007.27,38.0
2018-09-16 23:20,50.6304433333333,-96.9807766666667,12.3,19.8,325,980.90,9.1,100,15.41,0.0,1007.56,38.0
2018-09-16 23:30,50.6304466666667,-96.9807733333333,12.0,17.9,325,981.28,8.9,100,15.41,0.0,1007.97,38.0
